Regional Weather Roundup
Issued by NWS

Home | Current Version | Previous Version | Text Only | Print | Product List | Glossary Off
Versions: 1 2 3 4 5 6 7 8 9 10 11 12 13 14 15 16 17 18 19 20 21 22 23 24 25 26 27 28 29 30 31 32 33 34 35 36 37 38 39 40 41 42 43 44 45 46 47 48 49 50

000
ASUS43 KDTX 191310
RWRMI
MICHIGAN HOURLY REGIONAL WEATHER ROUNDUP
NATIONAL WEATHER SERVICE DETROIT/PONTIAC MI
800 AM EST FRI DEC 19 2014

NOTE: "FAIR" INDICATES FEW OR NO CLOUDS BELOW 12,000 FEET WITH NO
SIGNIFICANT WEATHER AND/OR OBSTRUCTION TO VISIBILITY.

MIZ047>049-052>055-059>063-066>070-074>076-081>083-191400-
SOUTHEAST LOWER MICHIGAN

CITY           SKY/WX    TMP DP  RH WIND       PRES   REMARKS
ADRIAN         CLOUDY    29  25  85 NW5       30.25R WCI  24
ALMA           CLOUDY    24  19  82 N5        30.27R WCI  18
ANN ARBOR      CLOUDY    27  23  85 N6        30.25R WCI  20
BAD AXE        CLOUDY    22  21  95 W3        30.25R
CARO           CLEAR     21  18  86 NW3       30.26S
DETROIT CITY   CLOUDY    29  19  66 NW5       30.26R WCI  24
DETROIT        CLOUDY    27  21  78 NW7       30.26R WCI  19
FLINT          CLOUDY    26  19  74 N5        30.26R WCI  20
GROSSE ILE     CLOUDY    28  23  80 N5        30.25R WCI  23
HILLSDALE      CLOUDY    28  27  97 CALM      30.22R FOG
HOWELL         CLOUDY    24  21  87 N5        30.24R WCI  19

CITY           SKY/WX    TMP DP  RH WIND       PRES   REMARKS
JACKSON        CLOUDY    27  25  92 NE3       30.24R
LAMBERTVILLE   CLOUDY    32  28  86 CALM      30.26R
LANSING        CLOUDY    25  21  85 NE6       30.26R WCI  18
LAPEER         CLOUDY    25  20  82 N5        30.25R WCI  19
MASON          CLOUDY    25  23  91 CALM      30.25R
MONROE         CLOUDY    28  27  93 CALM      30.25R
MT. CLEMENS    CLOUDY    27  22  80 N8        30.23R WCI  19
PONTIAC        CLOUDY    24  19  81 N7        30.23R WCI  16
PORT HOPE        N/A     30  21  69 NW5       30.23R WCI  25
PORT HURON     CLOUDY    27  21  80 NW7       30.25R WCI  19
TRI CITIES     PTCLDY    22  17  81 N7        30.28R WCI  13
TROY           CLOUDY    28  20  73 N5        30.27R WCI  23
SAGINAW HB     MOCLDY    23  21  93 NW5       30.27R WCI  17
$$
MIZ043>046-050>051-056>058-064>065-071>073-077>080-191400-
SOUTHWEST LOWER MICHIGAN

CITY           SKY/WX    TMP DP  RH WIND       PRES   REMARKS
BATTLE CREEK   CLOUDY    29  24  82 N5        30.25R WCI  24
BENTON HARBOR  CLOUDY    27  22  81 E3        30.27R
BIG RAPIDS     CLOUDY    21  19  94 N3        30.25R
COLDWATER      CLOUDY    27  26  94 CALM      30.24R FOG
FREMONT        FAIR      17  16  93 CALM      30.27R
HOLLAND        CLEAR     20  15  81 CALM      30.28R
GRAND RAPIDS   CLOUDY    26  19  74 N5        30.27R WCI  20
IONIA          CLOUDY    27  20  77 NE5       30.25R WCI  21
KALAMAZOO      MOCLDY    27  22  81 NW5       30.26R WCI  22
LUDINGTON      PTCLDY    12   9  87 CALM      30.29R
MARSHALL       CLOUDY    27  25  94 CALM      30.24R
MOUNT PLEASANT CLEAR     20  17  90 CALM      30.26S
MUSKEGON       CLEAR     19  15  84 CALM      30.28R
SOUTH HAVEN    CLEAR     19  17  92 CALM      30.27S
$$
MIZ016>042-191400-
NORTHERN LOWER MICHIGAN

CITY           SKY/WX    TMP DP  RH WIND       PRES   REMARKS
ALPENA         MOCLDY    14  11  87 W3        30.27R
BEAVER ISLAND  CLEAR     10   8  92 CALM      30.28S
BELLAIRE       MOCLDY     9   6  89 CALM      30.29S
CADILLAC       FOG       11   9  90 CALM      30.23R VSB 1/4
CHARLEVOIX     PTCLDY    13  11  92 CALM      30.30S
FRANKFORT      CLOUDY    19  17  95 CALM      30.28R
GAYLORD        PTCLDY     5   1  83 CALM      30.23R
GRAYLING       PTCLDY     1  -2  85 CALM      30.26R
HARBOR SPRINGS PTCLDY     8   4  86 CALM      30.28R
HOUGHTON LAKE  PTCLDY     9   6  88 W3        30.25S FOG
MANISTEE       CLOUDY    12   7  79 E6        30.29R WCI   3
OSCODA         CLEAR     12  10  92 CALM      30.26R
PELLSTON       PTCLDY    -2  -6  83 CALM      30.29R
ROGERS CITY    CLOUDY    19  18  94 W5        30.28R WCI  12
TRAVERSE CITY  CLOUDY    17  13  84 S3        30.28R
$$
MIZ007>008-015-191400-
EASTERN UPPER MICHIGAN

CITY           SKY/WX    TMP DP  RH WIND       PRES   REMARKS
KINROSS        MOCLDY     5   3  92 CALM      30.28R
MACKINAC ISLAN PTCLDY    13  11  92 N6        30.27S WCI   4
NEWBERRY       PTCLDY     4   3  94 CALM      30.27R
S. S. MARIE    PTCLDY     8   2  76 CALM      30.30R
MUNISING         N/A     24  19  81 S7        30.27S WCI  16
$$
MIZ004>006-011>014-085-191400-
CENTRAL UPPER MICHIGAN

CITY           SKY/WX    TMP DP  RH WIND       PRES   REMARKS
MANISTIQUE     CLOUDY    11   9  92 CALM      30.28R
ESCANABA       PTCLDY    10   7  85 CALM      30.28R
MENOMINEE      PTCLDY    14  10  85 NW3       30.29R
SAWYER-GWINN   CLOUDY    19  18  93 CALM      30.24S
$$
MIZ001>003-009>011-084-191400-
WESTERN UPPER MICHIGAN

CITY           SKY/WX    TMP DP  RH WIND       PRES   REMARKS
IRON MOUNTAIN  MOCLDY     7   3  84 NW3       30.26S
HOUGHTON       CLOUDY    22  18  85 NW7       30.26S WCI  13
COPPER HARBOR    N/A     27  20  75 W5        30.28S WCI  22
IRONWOOD       CLOUDY    10  10 100 CALM      30.22S
$$

ABBREVIATIONS USED IN REMARKS
   TC - TEMPERATURE IN CELSIUS
  WCI - WIND CHILL INDEX
   HX - HEAT INDEX
  VSB - VISIBILITY




USA.gov is the U.S. government's official web portal to all federal, state and local government web resources and services.